User: anonymous
Location: Vancouver
(49.2500°N, 123.1330°W)
Time: 14:38:26
(UTC-07:00)
Language:

H-2A R/B - Orbit

View from above orbital plane
View from above orbital plane
View from above satellite
View from above satellite

Ground track
Ground track

The orbit data is extracted from the following two-line orbital elements,

1 27601U 02056E   14211.16215301  .00000116  00000-0  58012-4 0  1458
2 27601 098.4807 292.8280 0073113 171.3736 244.9985 14.31390047607149
Epoch (UTC): 30 July 2014 03:53:30
Eccentricity: 0.0073113
inclination: 98.4807°
perigee height: 735 km
apogee height: 839 km
right ascension of ascending node: 292.8280°
argument of perigee: 171.3736°
revolutions per day: 14.31390047
mean anomaly at epoch: 244.9985°
orbit number at epoch: 60714

The dashed part of the orbit path shows where the satellite is in the earth's shadow,  

DLR